NK0V Weather Reports


Display with metric or nautical units.
time (UTC)temp
F
wind
direction
speed
MPH
gust
MPH
rain 1hr
in
rain 24hr
in
rain mn
in
humidity
%
barometer
mb
20260508163601 70 289 6.0 15.0 0.00 0.00 0.00 25 1006.9
20260508163105 70 261 7.0 14.0 0.00 0.00 0.00 27 1007.1
20260508162556 70 243 6.0 15.0 0.00 0.00 0.00 26 1007.0
20260508162101 69 225 8.0 15.0 0.00 0.00 0.00 26 1007.0
20260508161558 69 250 8.0 15.0 0.00 0.00 0.00 25 1006.9
20260508161104 69 253 5.0 12.0 0.00 0.00 0.00 27 1007.1
20260508160603 69 235 4.0 12.0 0.00 0.00 0.00 28 1007.1
20260508160057 69 288 5.0 13.0 0.00 0.00 0.00 27 1007.1
20260508155558 68 252 6.0 13.0 0.00 0.00 0.00 27 1007.1
20260508155058 68 277 5.0 15.0 0.00 0.00 0.00 26 1007.1
20260508154559 68 254 6.0 15.0 0.00 0.00 0.00 28 1007.3
20260508154058 67 261 6.0 18.0 0.00 0.00 0.00 27 1007.3
20260508153557 67 255 8.0 18.0 0.00 0.00 0.00 27 1007.4
20260508153056 67 261 8.0 18.0 0.00 0.00 0.00 28 1007.4
20260508152600 66 296 7.0 15.0 0.00 0.00 0.00 28 1007.4
20260508152058 66 275 8.0 15.0 0.00 0.00 0.00 29 1007.5
20260508151601 66 256 5.0 16.0 0.00 0.00 0.00 29 1007.5
20260508151059 65 250 7.0 16.0 0.00 0.00 0.00 31 1007.6
20260508150556 64 257 7.0 13.0 0.00 0.00 0.00 30 1007.6
20260508150058 64 270 6.0 13.0 0.00 0.00 0.00 30 1007.6
20260508145603 63 242 8.0 15.0 0.00 0.00 0.00 31 1007.6
20260508145102 62 250 8.0 15.0 0.00 0.00 0.00 30 1007.7
20260508144557 62 239 8.0 15.0 0.00 0.00 0.00 31 1007.7
20260508144058 61 239 6.0 14.0 0.00 0.00 0.00 31 1007.7
20260508143556 61 253 6.0 13.0 0.00 0.00 0.00 32 1007.8
20260508143111 60 240 7.0 14.0 0.00 0.00 0.00 34 1007.8
20260508142555 59 234 8.0 14.0 0.00 0.00 0.00 35 1007.9
20260508142058 59 279 7.0 13.0 0.00 0.00 0.00 34 1007.9
20260508141558 58 231 7.0 13.0 0.00 0.00 0.00 36 1007.9
20260508141058 57 243 6.0 11.0 0.00 0.00 0.00 36 1008.0
20260508140558 56 246 6.0 13.0 0.00 0.00 0.00 38 1008.1
20260508140110 55 252 6.0 13.0 0.00 0.00 0.00 40 1008.3
20260508135556 54 245 7.0 13.0 0.00 0.00 0.00 40 1008.3
20260508135059 53 224 4.0 11.0 0.00 0.00 0.00 42 1008.4
20260508134558 53 252 6.0 11.0 0.00 0.00 0.00 43 1008.4
20260508134058 52 246 6.0 11.0 0.00 0.00 0.00 44 1008.3
20260508133601 51 213 4.0 10.0 0.00 0.00 0.00 46 1008.4
20260508133102 50 231 4.0 10.0 0.00 0.00 0.00 47 1008.5
20260508132602 50 250 4.0 10.0 0.00 0.00 0.00 49 1008.6
20260508132055 49 238 4.0 9.0 0.00 0.00 0.00 49 1008.6
20260508131559 48 225 4.0 10.0 0.00 0.00 0.00 51 1008.6
20260508131055 47 249 5.0 10.0 0.00 0.00 0.00 52 1008.6
20260508130558 46 232 4.0 8.0 0.00 0.00 0.00 53 1008.6
20260508130110 45 207 3.0 8.0 0.00 0.00 0.00 56 1008.6
20260508125555 44 213 2.0 8.0 0.00 0.00 0.00 57 1008.7
20260508125056 43 200 4.0 8.0 0.00 0.00 0.00 57 1008.6
20260508124610 42 219 3.0 7.0 0.00 0.00 0.00 59 1008.6
20260508124055 42 205 2.0 5.0 0.00 0.00 0.00 60 1008.6
20260508123558 41 177 1.0 5.0 0.00 0.00 0.00 62 1008.5
20260508123101 41 0 1.0 4.0 0.00 0.00 0.00 62 1008.4
20260508122558 40 186 0.0 4.0 0.00 0.00 0.00 63 1008.5
20260508122102 40 185 0.0 2.0 0.00 0.00 0.00 62 1008.5
20260508121631 39 184 1.0 2.0 0.00 0.00 0.00 62 1008.5
20260508121058 39 0 0.0 2.0 0.00 0.00 0.00 61 1008.4
20260508120558 39 0 0.0 4.0 0.00 0.00 0.00 62 1008.5
20260508120058 38 0 1.0 4.0 0.00 0.00 0.00 61 1008.4
20260508115554 38 165 0.0 3.0 0.00 0.00 0.00 61 1008.4
20260508115056 38 165 0.0 3.0 0.00 0.00 0.00 60 1008.4
20260508114556 38 163 0.0 3.0 0.00 0.00 0.00 60 1008.4
20260508114057 37 151 0.0 3.0 0.00 0.00 0.00 60 1008.3
20260508113600 37 0 0.0 2.0 0.00 0.00 0.00 60 1008.3
20260508113104 37 0 0.0 2.0 0.00 0.00 0.00 60 1008.3
20260508112558 37 128 1.0 3.0 0.00 0.00 0.00 60 1008.4
20260508112058 37 128 1.0 3.0 0.00 0.00 0.00 59 1008.4
20260508111610 37 128 1.0 3.0 0.00 0.00 0.00 60 1008.5
20260508111059 37 127 1.0 3.0 0.00 0.00 0.00 59 1008.5
20260508110559 37 136 1.0 3.0 0.00 0.00 0.00 59 1008.5
20260508110057 37 155 0.0 3.0 0.00 0.00 0.00 59 1008.6
20260508105558 37 171 0.0 4.0 0.00 0.00 0.00 58 1008.5
20260508105055 37 0 0.0 4.0 0.00 0.00 0.00 56 1008.5
20260508104604 37 159 0.0 3.0 0.00 0.00 0.00 56 1008.6
20260508104054 37 133 1.0 3.0 0.00 0.00 0.00 56 1008.7
20260508103559 37 165 1.0 3.0 0.00 0.00 0.00 56 1008.6
20260508103057 37 139 1.0 3.0 0.00 0.00 0.00 56 1008.7
20260508102558 37 196 1.0 3.0 0.00 0.00 0.00 56 1008.8
20260508102058 37 0 0.0 2.0 0.00 0.00 0.00 56 1008.7
20260508101557 37 0 0.0 3.0 0.00 0.00 0.00 56 1008.7
20260508101055 37 0 0.0 3.0 0.00 0.00 0.00 55 1008.6
20260508100602 37 0 1.0 3.0 0.00 0.00 0.00 55 1008.7
20260508095558 37 134 1.0 4.0 0.00 0.00 0.00 55 1008.6
20260508095055 37 130 1.0 4.0 0.00 0.00 0.00 55 1008.7
20260508094603 37 128 2.0 4.0 0.00 0.00 0.00 55 1008.6
20260508094055 37 126 2.0 3.0 0.00 0.00 0.00 55 1008.4
20260508093559 37 126 2.0 3.0 0.00 0.00 0.00 55 1008.5
20260508093059 37 126 2.0 4.0 0.00 0.00 0.00 55 1008.4
20260508092558 37 126 2.0 4.0 0.00 0.00 0.00 55 1008.3
20260508092055 37 125 2.0 4.0 0.00 0.00 0.00 54 1008.4
20260508091606 37 132 2.0 3.0 0.00 0.00 0.00 54 1008.5
20260508091058 37 138 2.0 3.0 0.00 0.00 0.00 54 1008.5
20260508090559 37 142 1.0 3.0 0.00 0.00 0.00 54 1008.5
20260508090110 37 143 1.0 2.0 0.00 0.00 0.00 55 1008.5
20260508085554 38 154 0.0 3.0 0.00 0.00 0.00 55 1008.5
20260508085054 38 173 0.0 3.0 0.00 0.00 0.00 54 1008.6
20260508084556 38 132 0.0 3.0 0.00 0.00 0.00 54 1008.5
20260508084055 38 0 0.0 2.0 0.00 0.00 0.00 54 1008.7
20260508083558 38 0 0.0 3.0 0.00 0.00 0.00 54 1008.7
20260508083058 38 0 0.0 4.0 0.00 0.00 0.00 54 1008.7
20260508082555 38 0 1.0 4.0 0.00 0.00 0.00 54 1008.7
20260508082055 38 0 0.0 2.0 0.00 0.00 0.00 54 1008.8
20260508081609 38 0 0.0 3.0 0.00 0.00 0.00 53 1008.8
20260508081059 38 143 1.0 3.0 0.00 0.00 0.00 53 1008.8
20260508080555 38 143 0.0 2.0 0.00 0.00 0.00 52 1008.9
20260508075601 39 0 0.0 3.0 0.00 0.00 0.00 51 1009.0
20260508075057 39 144 0.0 3.0 0.00 0.00 0.00 51 1008.9
20260508074558 39 141 0.0 3.0 0.00 0.00 0.00 51 1009.0
20260508074055 39 139 1.0 3.0 0.00 0.00 0.00 51 1009.0
20260508073555 39 128 1.0 3.0 0.00 0.00 0.00 50 1009.1
20260508073105 40 128 0.0 3.0 0.00 0.00 0.00 50 1009.1
20260508072558 40 127 1.0 3.0 0.00 0.00 0.00 50 1009.2
20260508072058 40 117 1.0 3.0 0.00 0.00 0.00 50 1009.1
20260508071622 40 117 1.0 2.0 0.00 0.00 0.00 50 1009.2
20260508071058 40 0 0.0 2.0 0.00 0.00 0.00 50 1009.1
20260508070558 40 117 0.0 2.0 0.00 0.00 0.00 50 1009.1
20260508065555 40 117 1.0 3.0 0.00 0.00 0.00 49 1009.3
20260508065058 41 115 1.0 2.0 0.00 0.00 0.00 48 1009.3
20260508064600 41 117 1.0 2.0 0.00 0.00 0.00 48 1009.4
20260508064057 41 0 0.0 2.0 0.00 0.00 0.00 48 1009.4
20260508063556 41 117 0.0 2.0 0.00 0.00 0.00 48 1009.4
20260508063056 41 117 0.0 2.0 0.00 0.00 0.00 48 1009.5
20260508062555 41 117 1.0 2.0 0.00 0.00 0.00 48 1009.4
20260508062058 42 0 0.0 3.0 0.00 0.00 0.00 48 1009.4
20260508061558 42 117 1.0 3.0 0.00 0.00 0.00 47 1009.5
20260508061058 42 117 1.0 3.0 0.00 0.00 0.00 48 1009.5
20260508060558 42 117 1.0 3.0 0.00 0.00 0.00 46 1009.5
20260508060055 42 116 1.0 4.0 0.00 0.00 0.00 46 1009.6
20260508055601 42 0 0.0 4.0 0.00 0.00 0.00 46 1009.5
20260508055055 42 119 2.0 4.0 0.00 0.00 0.00 46 1009.5
20260508054608 42 121 1.0 4.0 0.00 0.00 0.00 46 1009.5
20260508054054 42 123 2.0 4.0 0.00 0.00 0.00 45 1009.6
20260508053559 42 125 1.0 4.0 0.00 0.00 0.00 45 1009.6
20260508053057 42 96 0.0 2.0 0.00 0.00 0.00 45 1009.6
20260508052556 42 92 0.0 2.0 0.00 0.00 0.00 45 1009.6
20260508052058 42 0 0.0 2.0 0.00 0.00 0.00 46 1009.7
20260508051609 42 0 0.0 2.0 0.00 0.00 0.00 45 1009.7
20260508051058 42 92 0.0 3.0 0.00 0.00 0.00 45 1009.7
20260508050555 42 92 1.0 3.0 0.00 0.00 0.00 45 1009.7
20260508045558 42 92 1.0 3.0 0.00 0.00 0.00 45 1009.7
20260508045055 43 92 1.0 3.0 0.00 0.00 0.00 45 1009.8
20260508044601 43 0 1.0 3.0 0.00 0.00 0.00 45 1009.8
20260508044058 43 84 2.0 3.0 0.00 0.00 0.00 44 1009.8
20260508043558 44 84 1.0 3.0 0.00 0.00 0.00 43 1009.9
20260508043056 44 91 1.0 3.0 0.00 0.00 0.00 43 1009.8
20260508042601 44 113 0.0 3.0 0.00 0.00 0.00 42 1009.8
20260508042055 45 114 1.0 3.0 0.00 0.00 0.00 42 1009.8
20260508041558 45 82 1.0 3.0 0.00 0.00 0.00 42 1009.9
20260508041058 45 82 2.0 3.0 0.00 0.00 0.00 42 1010.0
20260508040555 46 82 1.0 2.0 0.00 0.00 0.00 42 1010.0
20260508040100 46 42 0.0 2.0 0.00 0.00 0.00 42 1010.0
20260508035558 46 42 1.0 2.0 0.00 0.00 0.00 42 1010.0
20260508035058 46 42 1.0 3.0 0.00 0.00 0.00 42 1010.0
20260508034558 47 42 1.0 3.0 0.00 0.00 0.00 42 1010.0
20260508034054 47 42 1.0 3.0 0.00 0.00 0.00 42 1010.0
20260508033557 47 41 0.0 3.0 0.00 0.00 0.00 42 1010.0
20260508033115 48 41 0.0 3.0 0.00 0.00 0.00 41 1010.0
20260508032555 48 47 1.0 3.0 0.00 0.00 0.00 40 1010.0
20260508032058 49 49 0.0 1.0 0.00 0.00 0.00 39 1010.1
20260508031558 49 0 0.0 1.0 0.00 0.00 0.00 38 1010.0
20260508031057 50 0 0.0 2.0 0.00 0.00 0.00 37 1010.0
20260508030555 50 0 0.0 2.0 0.00 0.00 0.00 37 1010.0
20260508030109 50 0 0.0 2.0 0.00 0.00 0.00 37 1010.0
20260508025555 51 0 0.0 2.0 0.00 0.00 0.00 38 1010.0
20260508025055 51 0 0.0 2.0 0.00 0.00 0.00 36 1009.9
20260508024620 52 276 0.0 2.0 0.00 0.00 0.00 36 1010.0
20260508024057 52 276 0.0 1.0 0.00 0.00 0.00 35 1010.0
20260508023555 53 0 0.0 1.0 0.00 0.00 0.00 34 1010.0
20260508023055 53 0 0.0 1.0 0.00 0.00 0.00 33 1010.0
20260508022558 53 0 0.0 2.0 0.00 0.00 0.00 31 1010.0
20260508022056 54 0 0.0 2.0 0.00 0.00 0.00 31 1010.0
20260508021557 54 0 0.0 2.0 0.00 0.00 0.00 31 1010.0
20260508021056 55 294 0.0 2.0 0.00 0.00 0.00 30 1010.0
20260508020555 55 294 1.0 3.0 0.00 0.00 0.00 30 1010.0
20260508020110 56 294 0.0 3.0 0.00 0.00 0.00 29 1009.9
20260508015555 56 0 0.0 6.0 0.00 0.00 0.00 29 1009.8
20260508015055 57 279 2.0 6.0 0.00 0.00 0.00 29 1009.9
20260508014620 57 275 1.0 4.0 0.00 0.00 0.00 29 1009.8
20260508014056 57 271 2.0 6.0 0.00 0.00 0.00 28 1009.7
20260508013555 58 274 2.0 6.0 0.00 0.00 0.00 28 1009.6
20260508013107 58 265 2.0 7.0 0.00 0.00 0.00 27 1009.6
20260508012555 58 261 2.0 7.0 0.00 0.00 0.00 27 1009.6
20260508012055 58 278 2.0 7.0 0.00 0.00 0.00 27 1009.6
20260508011600 59 268 3.0 7.0 0.00 0.00 0.00 26 1009.5
20260508011057 59 277 3.0 8.0 0.00 0.00 0.00 26 1009.4
20260508010555 59 266 4.0 8.0 0.00 0.00 0.00 26 1009.4
20260508010106 59 259 4.0 9.0 0.00 0.00 0.00 26 1009.4
20260508005554 60 275 4.0 9.0 0.00 0.00 0.00 26 1009.3
20260508005058 60 265 5.0 14.0 0.00 0.00 0.00 25 1009.2
20260508004556 60 265 3.0 14.0 0.00 0.00 0.00 26 1009.2
20260508004055 60 302 7.0 13.0 0.00 0.00 0.00 25 1009.2
20260508003554 61 277 5.0 11.0 0.00 0.00 0.00 25 1009.1